Location: La Chapelle
(48.3135°N, 1.3085°W)
Time: 00:52:56
(UTC+00:00)

Cosmos 1703 Rocket - Pass Details

Date: 03 March 2021
Orbit: 604 x 634 km, 82.5° (Epoch: 12 April)

Event Time Altitude Azimuth Distance (km) Brightness Sun altitude
Rises 18:46:59 0° 357° (N) 2,915 7.1 -9.8°
Reaches altitude 10° 18:49:23 10° 6° (N) 1,998 6.1 -10.2°
Maximum altitude 18:53:28 36° 73° (ENE) 986 4.1 -10.9°
Drops below altitude 10° 18:57:30 10° 141° (SE) 1,966 5.7 -11.6°
Enters shadow 18:59:32 - 149° (SSE) 2,741 6.5 -11.9°
